Location: K�ln
(50.9455°N, 6.9544°E)
Time: 00:18:03
(UTC+01:00)

Amateur Radio Satellites - All Passes

Search period start: 21 November 2017 23:48
Search period end: 22 November 2017 23:48
Location: K�ln, 50.9455°N, 6.9544°E

Satellite Date Start Highest point End Downlink Frequencies (MHz)
Time Altitude Azimuth
POLYITAN 1 21 Nov 23:51:32 23:55:00 24° 93° (E) 23:58:26 437.675
UNISAT 6 21 Nov 23:54:18 23:57:30 21° 300° (WNW) 00:00:40 437.425
O/OREOS (USA 219) 21 Nov 23:56:54 00:01:06 37° 252° (WSW) 00:05:16 437.305
TIGRISAT 21 Nov 23:58:33 00:01:43 20° 300° (WNW) 00:04:52 435.000
DX 1 22 Nov 00:03:20 00:06:39 21° 60° (ENE) 00:09:59 434.975-435.025
SPROUT 22 Nov 00:12:07 00:16:24 69° 258° (WSW) 00:20:41 437.525
QB50P2 22 Nov 00:14:31 00:18:35 45° 99° (E) 00:22:36 145.880/145.840
RS-15 22 Nov 00:16:53 00:28:22 43° 6° (N) 00:39:26 29.354- 29.394
ISS 22 Nov 00:20:33 00:23:50 77° 358° (N) 00:27:06 437.550
BUGSAT 1 22 Nov 00:21:34 00:22:02 10° 86° (E) 00:22:30 437.445
50 SAT 22 Nov 00:35:15 00:38:12 33° 69° (ENE) 00:41:11 437.505
FO-29 22 Nov 00:36:10 00:39:20 13° 324° (NW) 00:42:29 435.910
Oscar 19 22 Nov 00:37:05 00:38:30 11° 84° (E) 00:39:55 437.125/150
ESTCUBE 1 22 Nov 00:38:51 00:41:04 13° 273° (W) 00:43:18 437.505/2401.250
UKube-1 22 Nov 00:43:48 00:47:37 31° 64° (ENE) 00:51:28 .
PCSat 22 Nov 00:44:06 00:49:18 50° 118° (ESE) 00:54:33 145.827
PRISM 22 Nov 00:45:47 00:48:33 17° 301° (WNW) 00:51:17 437.425
AIST 2D 22 Nov 00:54:26 00:57:18 24° 294° (WNW) 01:00:11 435.315
VELOX 1 22 Nov 00:54:31 00:58:43 41° 262° (W) 01:02:58 145.980
DUCHIFAT 1 22 Nov 01:03:21 01:07:33 84° 286° (WNW) 01:11:43 145.980
Gurwin Techsat 1B 22 Nov 01:04:45 01:07:45 15° 86° (E) 01:10:44 435.225
EO-79 22 Nov 01:11:23 01:15:31 56° 289° (WNW) 01:19:36 145.935-145.965
nSIGHT-1 22 Nov 01:11:26 01:14:40 88° 10° (N) 01:17:53 .
NANOSAT C BR1 22 Nov 01:14:17 01:18:25 58° 289° (WNW) 01:22:31 145.865
POLYITAN 1 22 Nov 01:26:59 01:30:55 40° 292° (WNW) 01:34:50 437.675
SO-50 22 Nov 01:28:03 01:31:10 18° 344° (NNW) 01:34:19 436.795
DX 1 22 Nov 01:38:11 01:42:29 56° 259° (WSW) 01:46:50 434.975-435.025
BEESAT 22 Nov 01:49:58 01:53:56 26° 61° (ENE) 01:57:54 436.000
QB50P2 22 Nov 01:50:47 01:54:08 23° 298° (WNW) 01:57:29 145.880/145.840
BUGSAT 1 22 Nov 01:53:59 01:58:03 88° 105° (ESE) 02:02:05 437.445
ISS 22 Nov 01:57:05 02:00:21 71° 197° (SSW) 02:03:36 437.550
ITUPSAT 1 22 Nov 01:59:45 02:03:56 31° 63° (ENE) 02:08:07 437.325
MOZHAYETS 4 22 Nov 02:07:05 02:11:20 40° 67° (ENE) 02:15:37
50 SAT 22 Nov 02:08:06 02:10:24 18° 267° (W) 02:12:44 437.505
Oscar 19 22 Nov 02:13:37 02:18:47 69° 103° (ESE) 02:23:56 437.125/150
UKube-1 22 Nov 02:19:39 02:23:35 34° 263° (W) 02:27:34 .
CUBESAT XI-V 22 Nov 02:21:32 02:24:34 18° 57° (ENE) 02:27:36 437.345
PCSat 22 Nov 02:27:48 02:32:53 39° 320° (NW) 02:37:59 145.827
RS-15 22 Nov 02:31:20 02:43:25 66° 38° (NE) 02:54:50 29.354- 29.394
BEESAT 3 22 Nov 02:33:35 02:36:31 20° 115° (ESE) 02:39:28 437.485
DUCHIFAT 1 22 Nov 02:40:45 02:42:32 13° 305° (NW) 02:44:19 145.980
Gurwin Techsat 1B 22 Nov 02:43:08 02:48:30 87° 106° (ESE) 02:53:50 435.225
nSIGHT-1 22 Nov 02:47:47 02:50:43 32° 210° (SSW) 02:53:37 .
M-CUBED/EXP-1 PRIME 22 Nov 03:02:35 03:06:41 33° 102° (ESE) 03:10:53 437.505
SO-50 22 Nov 03:10:32 03:13:20 16° 9° (N) 03:16:08 436.795
AO-7 22 Nov 03:19:40 03:27:08 35° 95° (E) 03:34:35 .
BEESAT 22 Nov 03:26:50 03:31:27 50° 260° (W) 03:36:08 436.000
BUGSAT 1 22 Nov 03:30:55 03:32:48 13° 304° (NW) 03:34:40 437.445
ISS 22 Nov 03:33:58 03:36:26 20° 217° (SW) 03:38:55 437.550
ITUPSAT 1 22 Nov 03:37:07 03:41:38 41° 262° (W) 03:46:12 437.325
MOZHAYETS 4 22 Nov 03:44:41 03:48:37 28° 266° (W) 03:52:34
BEESAT 2 22 Nov 03:45:41 03:49:13 30° 119° (ESE) 03:52:48 435.950
Oscar 19 22 Nov 03:53:43 03:57:39 23° 303° (WNW) 04:01:35 437.125/150
KKS-1 22 Nov 03:54:56 03:58:55 32° 64° (ENE) 04:02:55 437.445
YUBILEINY 22 Nov 03:56:27 04:01:03 16° 69° (ENE) 04:05:39 435.215
CUBESAT XI-V 22 Nov 03:56:47 04:01:22 77° 256° (WSW) 04:06:02 437.345
ITAMSAT 1 22 Nov 04:07:22 04:12:27 49° 100° (E) 04:17:29 435.822/435.867
BEESAT 3 22 Nov 04:09:43 04:13:41 62° 314° (NW) 04:17:41 437.485
PCSat 22 Nov 04:14:18 04:17:48 17° 344° (NNW) 04:21:18 145.827
STARS 22 Nov 04:17:50 04:21:24 24° 61° (ENE) 04:25:00 437.465
Gurwin Techsat 1B 22 Nov 04:24:07 04:27:48 19° 306° (NW) 04:31:28 435.225
DOVE 4 22 Nov 04:30:44 04:34:33 20° 88° (E) 04:38:14 437.250
M-CUBED/EXP-1 PRIME 22 Nov 04:36:55 04:41:05 39° 299° (WNW) 04:45:21 437.505
RS-15 22 Nov 04:44:24 04:55:44 53° 245° (WSW) 05:06:29 29.354- 29.394
SO-50 22 Nov 04:51:01 04:55:08 31° 32° (NNE) 04:59:17 436.795
AO-85 22 Nov 05:01:51 05:05:43 61° 126° (SE) 05:09:48 145.980
STRAND 1 22 Nov 05:09:38 05:12:22 15° 51° (NE) 05:15:06 437.568
AO-7 22 Nov 05:12:12 05:20:29 69° 297° (WNW) 05:28:46 .
BEESAT 2 22 Nov 05:22:58 05:26:50 43° 319° (NW) 05:30:45 435.950
KKS-1 22 Nov 05:31:17 05:35:25 35° 263° (W) 05:39:35 437.445
XW-2D 22 Nov 05:33:47 05:35:42 13° 89° (E) 05:37:36 145.860 - 145.880
CUBESAT XI-V 22 Nov 05:38:28 05:39:34 11° 276° (W) 05:40:41 437.345
FO-29 22 Nov 05:39:57 05:43:53 16° 40° (NE) 05:47:56 435.910
CUTE-I 22 Nov 05:44:56 05:48:36 18° 88° (E) 05:52:13 437.470
ITAMSAT 1 22 Nov 05:47:12 05:51:43 30° 299° (WNW) 05:56:11 435.822/435.867
YUBILEINY 22 Nov 05:47:23 05:55:59 64° 92° (E) 06:04:40 435.215
XW-2B 22 Nov 05:48:03 05:50:43 18° 91° (E) 05:53:22 145.730 - 145.750
BEESAT 3 22 Nov 05:49:13 05:51:59 18° 336° (NNW) 05:54:45 437.485
STARS 22 Nov 05:53:13 05:57:30 48° 260° (W) 06:01:49 437.465
NUDT-PHONESAT 22 Nov 06:00:01 06:02:30 17° 91° (E) 06:04:58 437.300
PCSat 22 Nov 06:00:11 06:03:25 16° 11° (N) 06:06:37 145.827
DOVE 4 22 Nov 06:07:30 06:12:45 70° 288° (WNW) 06:17:45 437.250
XW-2C 22 Nov 06:13:08 06:16:35 32° 96° (E) 06:20:02 145.795 - 145.815
LilacSat-2 22 Nov 06:15:56 06:19:32 37° 97° (E) 06:23:07 437.200
XW-2F 22 Nov 06:23:04 06:26:39 38° 98° (E) 06:30:13 145.980 - 146.000
HO-68 22 Nov 06:26:18 06:31:41 22° 88° (E) 06:37:01 435.675
SO-50 22 Nov 06:31:21 06:35:56 64° 233° (SW) 06:40:33 436.795
CUTE 1.7 + AOD 2 22 Nov 06:33:39 06:36:22 16° 89° (E) 06:39:04 437.475
AO-85 22 Nov 06:42:59 06:46:27 27° 329° (NNW) 06:50:05 145.980
STRAND 1 22 Nov 06:45:34 06:50:42 71° 71° (ENE) 06:55:51 437.568
KAITUO 1B 22 Nov 06:49:34 06:53:19 59° 101° (E) 06:57:03 145.475/437.950
RS-15 22 Nov 07:00:32 07:04:57 13° 270° (W) 07:09:20 29.354- 29.394
SEEDS 22 Nov 07:02:21 07:05:29 20° 91° (E) 07:08:37 437.485
BEESAT 2 22 Nov 07:03:07 07:05:33 15° 341° (NNW) 07:07:59 435.950
AO-7 22 Nov 07:05:49 07:11:56 24° 320° (NW) 07:18:04 .
XW-2D 22 Nov 07:06:30 07:10:17 65° 287° (WNW) 07:14:04 145.860 - 145.880
AAUSAT CUBESAT 2 22 Nov 07:08:41 07:09:31 10° 85° (E) 07:10:20 437.432
FO-29 22 Nov 07:20:31 07:27:07 49° 63° (ENE) 07:34:24 435.910
XW-2B 22 Nov 07:21:27 07:25:07 47° 289° (WNW) 07:28:47 145.730 - 145.750
CUTE-I 22 Nov 07:23:53 07:29:18 80° 287° (WNW) 07:34:39 437.470
BEESAT 3 22 Nov 07:29:46 07:31:03 11° 0° (N) 07:32:19 437.485
NUDT-PHONESAT 22 Nov 07:33:01 07:36:36 47° 289° (WNW) 07:40:10 437.300
AO-73 22 Nov 07:36:39 07:38:09 12° 86° (E) 07:39:37 145.935
CUBEBUG 2 22 Nov 07:36:54 07:40:51 38° 97° (E) 07:44:43 437.445
PCSat 22 Nov 07:43:41 07:48:32 32° 36° (NE) 07:53:22 145.827
YUBILEINY 22 Nov 07:45:22 07:53:22 38° 296° (WNW) 08:01:29 435.215
UNISAT 6 22 Nov 07:46:07 07:48:28 14° 56° (NE) 07:50:47 437.425
DOVE 4 22 Nov 07:46:45 07:49:28 14° 308° (NW) 07:52:09 437.250
XW-2C 22 Nov 07:47:28 07:50:40 26° 295° (WNW) 07:53:52 145.795 - 145.815
TIGRISAT 22 Nov 07:50:14 07:52:35 14° 56° (NE) 07:54:56 435.000
LilacSat-2 22 Nov 07:50:33 07:53:39 23° 295° (WNW) 07:56:43 437.200
Oscar 11 22 Nov 07:51:58 07:53:47 12° 86° (E) 07:55:36 .
XW-2F 22 Nov 07:57:35 08:00:34 22° 296° (WNW) 08:03:33 145.980 - 146.000
CUTE 1.7 + AOD 2 22 Nov 08:08:23 08:12:37 64° 287° (WNW) 08:16:51 437.475
HO-68 22 Nov 08:13:06 08:20:22 88° 289° (WNW) 08:27:33 435.675
SO-50 22 Nov 08:14:33 08:15:32 11° 252° (WSW) 08:16:31 436.795
ZACube-1 22 Nov 08:20:29 08:24:18 34° 96° (E) 08:28:06 437.345
KAITUO 1B 22 Nov 08:24:35 08:26:53 16° 299° (WNW) 08:29:12 145.475/437.950
AO-85 22 Nov 08:26:03 08:28:15 14° 353° (N) 08:30:32 145.980
STRAND 1 22 Nov 08:26:44 08:30:25 19° 271° (W) 08:34:07 437.568
PRISM 22 Nov 08:30:29 08:32:33 14° 55° (NE) 08:34:37 437.425
UWE-3 22 Nov 08:31:55 08:36:05 80° 103° (ESE) 08:40:14 435.000/436.395/437.385
SEEDS 22 Nov 08:37:20 08:41:27 52° 290° (WNW) 08:45:35 437.485
AAUSAT CUBESAT 2 22 Nov 08:41:25 08:45:38 85° 103° (ESE) 08:49:50 437.432
XW-2A 22 Nov 08:42:16 08:45:37 74° 286° (WNW) 08:48:59 145.665 - 145.685
BEESAT 2 22 Nov 08:43:18 08:44:54 12° 6° (N) 08:46:28 435.950
AO-7 22 Nov 09:00:27 09:01:43 10° 346° (NNW) 09:02:58 .
CUTE-I 22 Nov 09:05:13 09:08:33 17° 308° (NW) 09:11:52 437.470
DELFI C3 22 Nov 09:05:16 09:07:34 15° 89° (E) 09:09:50 145.870
FO-29 22 Nov 09:05:44 09:12:14 45° 266° (W) 09:19:27 435.910
BEESAT 3 22 Nov 09:07:21 09:10:06 18° 24° (NNE) 09:12:50 437.485
AO-73 22 Nov 09:10:49 09:14:59 85° 283° (WNW) 09:19:09 145.935
CUBEBUG 2 22 Nov 09:13:50 09:17:20 26° 296° (WNW) 09:20:47 437.445
UNISAT 6 22 Nov 09:20:00 09:24:32 86° 76° (ENE) 09:29:01 437.425
TIGRISAT 22 Nov 09:24:05 09:28:39 87° 73° (ENE) 09:33:06 435.000
Oscar 11 22 Nov 09:26:11 09:30:32 86° 289° (WNW) 09:34:53 .
PCSat 22 Nov 09:26:59 09:32:23 69° 238° (WSW) 09:37:46 145.827
QB50P2 22 Nov 09:40:06 09:40:39 10° 53° (NE) 09:41:11 145.880/145.840
CUTE 1.7 + AOD 2 22 Nov 09:47:04 09:47:37 10° 307° (NW) 09:48:10 437.475
YUBILEINY 22 Nov 09:51:10 09:53:37 11° 325° (NW) 09:56:05 435.215
EO-88 22 Nov 09:55:33 09:58:31 23° 94° (E) 10:01:28 145.990 - 145.960
ZACube-1 22 Nov 09:56:57 10:00:31 28° 295° (WNW) 10:04:05 437.345
Max Valier Satellite 22 Nov 09:59:02 10:02:25 34° 97° (E) 10:05:47 145.860
AIST 2D 22 Nov 10:00:00 10:02:52 24° 66° (ENE) 10:05:45 435.315
HO-68 22 Nov 10:01:39 10:07:16 25° 311° (NW) 10:12:52 435.675
PRISM 22 Nov 10:03:02 10:07:11 89° 254° (WSW) 10:11:23 437.425
AO-85 22 Nov 10:07:25 10:10:21 17° 18° (NNE) 10:13:24 145.980
UWE-3 22 Nov 10:09:45 10:11:59 14° 303° (WNW) 10:14:13 435.000/436.395/437.385
AAUSAT CUBESAT 2 22 Nov 10:18:17 10:20:30 14° 303° (WNW) 10:22:42 437.432
BEESAT 2 22 Nov 10:20:47 10:24:02 22° 29° (NNE) 10:27:15 435.950
DUCHIFAT 1 22 Nov 10:25:28 10:28:24 19° 60° (ENE) 10:31:20 145.980
EO-79 22 Nov 10:33:14 10:36:46 26° 64° (ENE) 10:40:19 145.935-145.965
NANOSAT C BR1 22 Nov 10:35:55 10:39:23 25° 63° (ENE) 10:42:51 145.865
DELFI C3 22 Nov 10:38:44 10:42:43 64° 288° (WNW) 10:46:40 145.870
BEESAT 3 22 Nov 10:44:25 10:48:23 64° 46° (NE) 10:52:17 437.485
ESTCUBE 1 22 Nov 10:48:03 10:50:08 13° 86° (E) 10:52:11 437.505/2401.250
POLYITAN 1 22 Nov 10:48:25 10:52:17 35° 67° (ENE) 10:56:09 437.675
AO-73 22 Nov 10:48:53 10:50:34 12° 304° (NW) 10:52:15 145.935
AO-7 22 Nov 10:49:16 10:50:46 11° 15° (NNE) 10:52:16 .
UNISAT 6 22 Nov 10:59:42 11:01:51 13° 273° (W) 11:03:59 437.425
TIGRISAT 22 Nov 11:03:49 11:05:56 13° 273° (W) 11:08:02 435.000
Oscar 11 22 Nov 11:03:54 11:06:01 13° 304° (NW) 11:08:08 .
QB50P2 22 Nov 11:11:24 11:15:36 64° 73° (ENE) 11:19:49 145.880/145.840
PCSat 22 Nov 11:12:31 11:14:49 13° 257° (WSW) 11:17:05 145.827
BUGSAT 1 22 Nov 11:14:32 11:17:11 17° 59° (ENE) 11:19:49 437.445
EO-88 22 Nov 11:28:55 11:32:14 33° 292° (WNW) 11:35:33 145.990 - 145.960
AIST 2D 22 Nov 11:32:56 11:35:58 28° 265° (W) 11:39:01 435.315
Max Valier Satellite 22 Nov 11:33:09 11:36:06 23° 295° (WNW) 11:39:02 145.860
PRISM 22 Nov 11:41:56 11:43:06 11° 274° (W) 11:44:17 437.425
AO-85 22 Nov 11:47:26 11:51:47 45° 40° (NE) 11:56:27 145.980
LO-87 22 Nov 11:49:51 11:53:24 63° 102° (ESE) 11:56:54 145.935 - 145.965
SPROUT 22 Nov 11:53:47 11:56:08 14° 88° (E) 11:58:29 437.525
Oscar 19 22 Nov 11:57:21 12:01:41 29° 61° (ENE) 12:06:03 437.125/150
BEESAT 2 22 Nov 11:58:11 12:02:16 84° 227° (SW) 12:06:16 435.950
DUCHIFAT 1 22 Nov 11:59:30 12:03:40 60° 259° (W) 12:07:51 145.980
EO-79 22 Nov 12:08:23 12:12:23 39° 262° (W) 12:16:23 145.935-145.965
NANOSAT C BR1 22 Nov 12:10:54 12:14:54 41° 261° (W) 12:18:56 145.865
M-CUBED/EXP-1 PRIME 22 Nov 12:21:04 12:22:49 13° 47° (NE) 12:24:37 437.505
BEESAT 3 22 Nov 12:22:44 12:25:31 19° 245° (WSW) 12:28:16 437.485
ESTCUBE 1 22 Nov 12:23:01 12:27:35 89° 285° (WNW) 12:32:08 437.505/2401.250
POLYITAN 1 22 Nov 12:24:26 12:28:07 28° 265° (W) 12:31:49 437.675
Gurwin Techsat 1B 22 Nov 12:30:03 12:34:57 39° 64° (ENE) 12:39:53 435.225
AO-7 22 Nov 12:34:24 12:40:35 24° 41° (NE) 12:46:47 .
O/OREOS (USA 219) 22 Nov 12:37:01 12:39:20 14° 98° (E) 12:41:39 437.305
VELOX 1 22 Nov 12:39:18 12:43:05 26° 94° (E) 12:46:49 145.980
BUGSAT 1 22 Nov 12:47:54 12:52:05 69° 258° (WSW) 12:56:14 437.445
QB50P2 22 Nov 12:49:10 12:51:49 16° 271° (W) 12:54:30 145.880/145.840
50 SAT 22 Nov 13:20:12 13:22:01 14° 91° (E) 13:23:49 437.505
DX 1 22 Nov 13:21:56 13:24:57 18° 90° (E) 13:27:56 434.975-435.025
LO-87 22 Nov 13:24:32 13:26:21 13° 300° (WNW) 13:28:09 145.935 - 145.965
AO-85 22 Nov 13:27:54 13:32:11 37° 239° (WSW) 13:36:45 145.980
SPROUT 22 Nov 13:28:17 13:32:32 72° 287° (WNW) 13:36:45 437.525
Oscar 19 22 Nov 13:35:49 13:40:47 51° 260° (W) 13:45:48 437.125/150
BEESAT 2 22 Nov 13:37:40 13:39:18 12° 250° (WSW) 13:40:55 435.950
ITAMSAT 1 22 Nov 13:52:29 13:56:33 24° 57° (ENE) 14:00:38 435.822/435.867
M-CUBED/EXP-1 PRIME 22 Nov 13:52:49 13:56:29 83° 68° (ENE) 14:00:30 437.505
YUBILEINY 22 Nov 13:55:56 13:59:32 13° 38° (NE) 14:03:07 435.215
ESTCUBE 1 22 Nov 14:01:13 14:03:44 15° 305° (NW) 14:06:16 437.505/2401.250
UKube-1 22 Nov 14:01:14 14:04:56 27° 95° (E) 14:08:36 .
Gurwin Techsat 1B 22 Nov 14:10:00 14:14:55 38° 263° (W) 14:19:53 435.225
O/OREOS (USA 219) 22 Nov 14:13:26 14:18:02 87° 292° (WNW) 14:22:42 437.305
VELOX 1 22 Nov 14:15:27 14:19:41 42° 292° (WNW) 14:23:52 145.980
AO-7 22 Nov 14:23:53 14:32:06 72° 64° (ENE) 14:40:23 .
50 SAT 22 Nov 14:51:14 14:54:20 42° 289° (WNW) 14:57:23 437.505
DX 1 22 Nov 14:57:11 15:01:32 61° 289° (WNW) 15:05:50 434.975-435.025
SPROUT 22 Nov 15:06:19 15:07:39 11° 306° (NW) 15:08:59 437.525
BEESAT 22 Nov 15:21:48 15:25:55 28° 94° (E) 15:29:59 436.000
ITAMSAT 1 22 Nov 15:30:22 15:35:35 68° 257° (WSW) 15:40:50 435.822/435.867
M-CUBED/EXP-1 PRIME 22 Nov 15:30:35 15:31:35 11° 269° (W) 15:32:35 437.505
ITUPSAT 1 22 Nov 15:32:10 15:36:30 34° 96° (E) 15:40:48 437.325
MOZHAYETS 4 22 Nov 15:33:32 15:37:57 46° 98° (E) 15:42:21
CUTE-I 22 Nov 15:36:20 15:37:28 11° 45° (NE) 15:38:35 437.470
UKube-1 22 Nov 15:37:01 15:41:04 39° 294° (WNW) 15:45:05 .
DOVE 4 22 Nov 15:40:05 15:44:41 34° 63° (ENE) 15:49:25 437.250
CUBESAT XI-V 22 Nov 15:48:45 15:52:08 19° 90° (E) 15:55:29 437.345
YUBILEINY 22 Nov 15:51:06 15:59:28 43° 66° (ENE) 16:07:45 435.215
O/OREOS (USA 219) 22 Nov 15:54:59 15:58:10 18° 319° (NW) 16:01:20 437.305
NO-84 22 Nov 15:59:34 16:03:13 50° 144° (SE) 16:07:10 435.350 FM
AO-7 22 Nov 16:18:17 16:25:32 33° 266° (W) 16:32:51 .
XW-2D 22 Nov 16:19:57 16:22:01 14° 60° (ENE) 16:24:07 145.860 - 145.880
XW-2B 22 Nov 16:34:08 16:36:47 19° 62° (ENE) 16:39:28 145.730 - 145.750
DX 1 22 Nov 16:36:01 16:36:50 10° 309° (NW) 16:37:38 434.975-435.025
NUDT-PHONESAT 22 Nov 16:43:57 16:46:21 17° 62° (ENE) 16:48:46 437.300
XW-2C 22 Nov 16:58:57 17:02:18 32° 68° (ENE) 17:05:41 145.795 - 145.815
BEESAT 22 Nov 16:59:20 17:03:50 44° 294° (WNW) 17:08:20 436.000
HO-68 22 Nov 17:00:27 17:06:31 31° 53° (NE) 17:12:37 435.675
LilacSat-2 22 Nov 17:02:22 17:05:51 37° 69° (ENE) 17:09:22 437.200
RS-15 22 Nov 17:05:43 17:13:20 19° 95° (E) 17:20:54 29.354- 29.394
CUBEBUG 2 22 Nov 17:07:25 17:07:50 10° 53° (NE) 17:08:13 437.445
XW-2F 22 Nov 17:08:21 17:11:48 37° 69° (ENE) 17:15:17 145.980 - 146.000
ITUPSAT 1 22 Nov 17:09:59 17:14:21 37° 295° (WNW) 17:18:42 437.325
MOZHAYETS 4 22 Nov 17:11:07 17:14:54 26° 298° (WNW) 17:18:40
CUTE-I 22 Nov 17:11:09 17:16:18 47° 66° (ENE) 17:21:27 437.470
ITAMSAT 1 22 Nov 17:14:40 17:16:03 11° 276° (W) 17:17:26 435.822/435.867
KKS-1 22 Nov 17:16:47 17:20:44 30° 95° (E) 17:24:39 437.445
DOVE 4 22 Nov 17:17:21 17:22:13 43° 263° (W) 17:27:16 437.250
CUBESAT XI-V 22 Nov 17:25:16 17:29:55 63° 289° (WNW) 17:34:33 437.345
CUTE 1.7 + AOD 2 22 Nov 17:30:52 17:34:07 22° 62° (ENE) 17:37:24 437.475
KAITUO 1B 22 Nov 17:33:50 17:37:26 56° 73° (ENE) 17:41:05 145.475/437.950
NO-84 22 Nov 17:36:42 17:40:35 57° 345° (NNW) 17:44:43 435.350 FM
STARS 22 Nov 17:37:45 17:41:08 21° 92° (E) 17:44:28 437.465
YUBILEINY 22 Nov 17:48:02 17:56:36 57° 270° (W) 18:05:08 435.215
XW-2D 22 Nov 17:52:02 17:55:44 65° 258° (WSW) 17:59:30 145.860 - 145.880
SEEDS 22 Nov 17:58:34 18:02:00 26° 64° (ENE) 18:05:30 437.485
UWE-3 22 Nov 17:58:49 18:01:38 17° 59° (ENE) 18:04:25 435.000/436.395/437.385
AAUSAT CUBESAT 2 22 Nov 18:02:44 18:05:03 15° 58° (ENE) 18:07:23 437.432
XW-2B 22 Nov 18:07:04 18:10:40 46° 261° (W) 18:14:19 145.730 - 145.750
NUDT-PHONESAT 22 Nov 18:16:18 18:19:51 50° 260° (W) 18:23:27 437.300
XW-2C 22 Nov 18:33:26 18:36:32 24° 266° (W) 18:39:40 145.795 - 145.815
AO-73 22 Nov 18:36:11 18:39:08 19° 61° (ENE) 18:42:04 145.935
LilacSat-2 22 Nov 18:37:19 18:40:15 21° 267° (W) 18:43:13 437.200
CUBEBUG 2 22 Nov 18:39:08 18:43:36 60° 72° (ENE) 18:47:58 437.445
XW-2F 22 Nov 18:43:10 18:46:03 21° 268° (W) 18:48:57 145.980 - 146.000
HO-68 22 Nov 18:46:30 18:53:42 75° 254° (WSW) 19:00:57 435.675
Oscar 11 22 Nov 18:51:02 18:54:02 19° 60° (ENE) 18:57:04 .
CUTE-I 22 Nov 18:51:46 18:56:31 31° 266° (W) 19:01:18 437.470
STRAND 1 22 Nov 18:52:01 18:55:15 17° 88° (E) 18:58:28 437.568
KKS-1 22 Nov 18:53:14 18:57:21 37° 294° (WNW) 19:01:27 437.445
CUBESAT XI-V 22 Nov 19:04:52 19:06:23 11° 308° (NW) 19:07:54 437.345
CUTE 1.7 + AOD 2 22 Nov 19:05:37 19:09:41 48° 261° (W) 19:13:48 437.475
KAITUO 1B 22 Nov 19:09:42 19:11:47 14° 271° (W) 19:13:50 145.475/437.950
RS-15 22 Nov 19:11:16 19:23:20 65° 119° (ESE) 19:35:17 29.354- 29.394
STARS 22 Nov 19:13:28 19:17:45 51° 291° (WNW) 19:21:59 437.465
NO-84 22 Nov 19:14:25 19:18:24 48° 7° (N) 19:22:33 435.350 FM
XW-2A 22 Nov 19:17:33 19:20:52 80° 76° (ENE) 19:24:12 145.665 - 145.685
ZACube-1 22 Nov 19:20:40 19:24:49 50° 70° (ENE) 19:28:54 437.345
UWE-3 22 Nov 19:33:14 19:37:39 71° 259° (WSW) 19:41:57 435.000/436.395/437.385
SEEDS 22 Nov 19:33:37 19:37:32 39° 263° (W) 19:41:31 437.485
AAUSAT CUBESAT 2 22 Nov 19:35:48 19:39:57 79° 258° (WSW) 19:44:08 437.432
YUBILEINY 22 Nov 19:47:40 19:51:20 13° 293° (WNW) 19:54:59 435.215
DELFI C3 22 Nov 19:55:06 19:57:48 18° 60° (ENE) 20:00:31 145.870
FO-29 22 Nov 20:09:22 20:16:14 32° 89° (E) 20:22:46 435.910
AO-73 22 Nov 20:10:47 20:15:01 60° 259° (W) 20:19:11 145.935
CUBEBUG 2 22 Nov 20:17:23 20:20:34 19° 270° (W) 20:23:43 437.445
Oscar 11 22 Nov 20:25:31 20:29:47 62° 259° (W) 20:34:04 .
STRAND 1 22 Nov 20:29:56 20:35:05 82° 288° (WNW) 20:40:12 437.568
EO-88 22 Nov 20:37:53 20:40:43 22° 64° (ENE) 20:43:34 145.990 - 145.960
HO-68 22 Nov 20:38:15 20:42:41 17° 275° (W) 20:47:08 435.675
Max Valier Satellite 22 Nov 20:42:21 20:45:38 32° 68° (ENE) 20:48:55 145.860
NO-84 22 Nov 20:51:50 20:56:03 87° 210° (SSW) 21:00:20 435.350 FM
SO-50 22 Nov 20:53:15 20:54:43 11° 109° (ESE) 20:56:11 436.795
ZACube-1 22 Nov 20:58:11 21:01:22 20° 269° (W) 21:04:31 437.345
O/OREOS (USA 219) 22 Nov 21:01:04 21:03:32 14° 37° (NE) 21:06:00 437.305
nSIGHT-1 22 Nov 21:03:59 21:06:33 22° 145° (SE) 21:09:08 .
UNISAT 6 22 Nov 21:08:20 21:10:04 12° 86° (E) 21:11:46 437.425
TIGRISAT 22 Nov 21:12:17 21:14:00 12° 86° (E) 21:15:42 435.000
RS-15 22 Nov 21:24:05 21:36:17 60° 327° (NNW) 21:48:13 29.354- 29.394
DELFI C3 22 Nov 21:28:15 21:32:09 57° 259° (W) 21:36:07 145.870
ESTCUBE 1 22 Nov 21:51:43 21:55:11 22° 60° (ENE) 21:58:40 437.505/2401.250
ISS 22 Nov 21:52:05 21:55:10 39° 152° (SSE) 21:58:15 437.550
FO-29 22 Nov 21:53:59 22:01:52 72° 290° (WNW) 22:09:22 435.910
STRAND 1 22 Nov 22:10:27 22:13:32 16° 307° (NW) 22:16:36 437.568
EO-88 22 Nov 22:10:50 22:14:11 35° 263° (W) 22:17:34 145.990 - 145.960
Max Valier Satellite 22 Nov 22:16:32 22:19:31 23° 266° (W) 22:22:30 145.860
NO-84 22 Nov 22:29:38 22:33:02 24° 226° (SW) 22:36:27 435.350 FM
SO-50 22 Nov 22:29:53 22:34:20 71° 128° (SE) 22:38:51 436.795
LO-87 22 Nov 22:30:01 22:33:32 54° 72° (ENE) 22:37:05 145.935 - 145.965
nSIGHT-1 22 Nov 22:39:14 22:42:28 76° 163° (SSE) 22:45:40 .
O/OREOS (USA 219) 22 Nov 22:39:21 22:43:55 63° 59° (ENE) 22:48:24 437.305
UNISAT 6 22 Nov 22:43:06 22:47:25 85° 285° (WNW) 22:51:41 437.425
TIGRISAT 22 Nov 22:47:02 22:51:21 85° 284° (WNW) 22:55:34 435.000
SPROUT 22 Nov 22:51:19 22:54:37 22° 61° (ENE) 22:57:55 437.525
AIST 2D 22 Nov 22:52:58 22:55:08 15° 90° (E) 22:57:18 435.315
PRISM 22 Nov 23:14:16 23:18:28 74° 103° (ESE) 23:22:37 437.425
ESTCUBE 1 22 Nov 23:27:16 23:31:40 54° 260° (W) 23:36:06 437.505/2401.250
ISS 22 Nov 23:28:14 23:31:31 83° 355° (N) 23:34:48 437.550
DUCHIFAT 1 22 Nov 23:39:19 23:41:45 15° 89° (E) 23:44:12 145.980
